Location: Starry Hill Observatory
(46.8582°N, 122.3590°W)
Time: 11:47:18
(UTC-08:00)

Daily predictions for brighter satellites

Satellite Brightness Start Highest point End
(mag) Time Altitude Azimuth Time Altitude Azimuth Time Altitude Azimuth
IDEFIX/ARIANE 42P 2.7 17:27:03 10° SSE 17:32:16 86° WSW 17:37:34 10° NNW
Cosmos 2333 Rocket 2.5 17:27:10 10° S 17:32:34 48° ESE 17:37:59 10° NE
Cosmos 1151 Rocket 3.2 17:29:07 10° N 17:33:16 47° ENE 17:37:25 10° SSE
Cosmos 2219 Rocket 2.3 17:27:55 10° S 17:33:29 62° ESE 17:39:02 10° NNE
Aureole 2 Rocket 4.1 17:31:40 10° SSE 17:34:32 21° E 17:37:34 10° NE
SJ-6B 4.4 17:34:16 10° ESE 17:36:53 17° ENE 17:39:32 10° NNE
Cosmos 1515 Rocket 3.6 17:32:38 10° N 17:37:08 76° E 17:41:35 10° SSE
Meteor 2-2 Rocket 4.3 17:33:07 10° NNW 17:38:48 89° W 17:44:27 10° S
Cosmos 1455 3.9 17:37:02 10° NE 17:38:51 13° ENE 17:40:41 10° E
Cosmos 2322 Rocket 4.3 17:35:07 10° W 17:39:07 19° NW 17:43:09 10° N
Cosmos 1674 3.1 17:36:56 10° SSW 17:40:45 69° W 17:44:37 10° N
Cosmos 371 Rocket 3.3 17:36:40 10° S 17:41:25 63° ESE 17:46:11 10° NNE
Cosmos 2278 Rocket 2.2 17:36:00 10° NNW 17:41:43 77° ENE 17:47:23 10° SSE
Cosmos 1726 2.2 17:38:46 10° N 17:42:30 55° ENE 17:46:12 10° SSE
SKYMED 2 4.3 17:40:21 10° NNE 17:44:16 32° E 17:48:09 10° SSE
SMAP 3.4 17:40:58 10° S 17:45:37 74° WSW 17:50:18 10° NNW
Lacrosse 4 Rocket 3.0 17:43:46 10° N 17:46:25 16° NE 17:48:34 12° ENE
Cosmos 1763 Rocket 3.9 17:44:00 10° SSW 17:49:10 64° WNW 17:54:18 10° NNE
Cosmos 372 Rocket 3.9 17:45:53 10° NNW 17:50:59 70° ENE 17:56:04 10° SSE
FREGAT/IRIS 4.3 17:51:44 10° ESE 17:53:39 16° ENE 17:55:35 10° NNE
Cosmos 1500 Rocket 3.5 17:49:31 10° S 17:53:51 80° E 17:58:14 10° NNE
Abrixas 3.8 17:54:27 10° SSW 17:56:58 26° SSE 17:58:45 15° E
Cosmos 2084 3.1 17:54:45 10° SW 17:58:38 89° NW 18:02:06 12° NE
Cosmos 1300 2.6 17:54:55 10° N 17:58:47 84° ENE 18:02:37 10° S
Meteor 1-27 4.3 17:53:51 10° N 17:59:38 64° ENE 18:05:26 10° SSE
Cosmos 540 Rocket 3.5 17:55:31 10° S 18:00:36 62° ESE 18:05:44 10° NNE
Cosmos 44 Rocket 3.4 17:57:42 10° SW 18:02:50 84° NW 18:07:53 10° NE
Cosmos 1340 Rocket 3.3 17:59:49 10° SSE 18:03:26 36° E 18:07:03 10° NNE
Sich 1 4.3 18:00:53 10° SE 18:04:14 21° E 18:06:47 14° NE
SL-14 R/B 3.2 18:00:25 10° S 18:04:18 65° E 18:08:17 10° NNE
Cosmos 1484 Rocket 2.8 18:03:35 10° SSE 18:07:32 87° WSW 18:11:34 10° NNW
Cosmos 1461 4.0 18:05:02 10° S 18:08:27 25° ESE 18:10:07 19° E
Cosmos 2058 3.0 18:04:32 10° S 18:08:33 54° E 18:12:34 10° NNE
Cosmos 2237 Rocket 2.2 18:03:13 10° SSW 18:08:48 72° ESE 18:14:27 10° NNE
Cosmos 2369 Rocket 3.7 18:06:33 10° N 18:10:03 16° NE 18:11:17 15° NE
Cosmos 1633 Rocket 4.2 18:08:23 10° SE 18:11:47 22° E 18:13:19 19° ENE
ATLAS 3B R/B 4.4 18:07:19 10° NW 18:12:26 20° N 18:17:08 11° NE
COSMOS 2428 3.9 18:08:47 10° SW 18:14:11 42° NW 18:19:37 10° NNE
NOSS 0 Rocket 3.9 18:09:03 10° SSW 18:15:17 89° SE 18:21:33 10° NNE
SL-16 R/B 2.7 18:10:47 10° S 18:15:56 37° ESE 18:19:54 16° NE
USA 215 3.2 18:10:26 10° ESE 18:16:58 77° NNE 18:23:32 10° NW
Cosmos 304 Rocket 4.1 18:15:24 10° S 18:19:59 46° ESE 18:23:39 15° NE
Orbus 7S? 4.2 18:19:37 10° NW 18:23:12 52° NE 18:29:24 14° ESE
Meteor 1-28 Rocket 3.2 18:19:55 10° NNE 18:23:36 55° E 18:27:15 10° S
Cosmos 2297 3.6 18:18:45 10° NNW 18:24:29 80° ENE 18:30:13 10° SSE
Cosmos 783 Rocket 4.5 18:20:48 10° SSW 18:26:06 79° ESE 18:31:28 10° NNE
Lacrosse 5 3.3 18:22:23 10° WNW 18:26:39 26° N 18:29:18 17° NE
Cosmos 1356 Rocket 3.7 18:26:26 10° SSE 18:30:08 38° E 18:31:41 27° NE
COSMO-SKYMED 1 2.6 18:28:05 10° NNE 18:32:27 83° WNW 18:36:47 10° SSW
Cosmos 1707 Rocket 3.4 18:28:13 10° N 18:32:33 65° E 18:36:51 10° SSE
Cosmos 1900 4.3 18:28:11 10° NW 18:33:09 89° WSW 18:38:10 10° SSE
Meteor 2-10 4.5 18:33:00 10° NNW 18:38:02 63° W 18:43:11 10° S
DMSP B5D1-3 4.4 18:34:57 10° NNE 18:40:05 81° ESE 18:45:11 10° SSW
Lacrosse 5 rocket 3.1 18:37:08 10° WNW 18:40:30 30° SW 18:44:00 10° SSE
Cosmos 1184 Rocket 4.4 18:38:32 10° SSE 18:40:05 23° SE 18:40:05 23° SE
Resurs 01 Rocket 2.0 18:41:22 22° SE 18:43:48 42° ENE 18:48:01 10° N
Aureole 1 Rocket 4.4 18:39:37 10° SSE 18:44:43 39° E 18:48:31 22° NE
Spot 2 Rocket 3.7 18:40:46 10° SE 18:45:33 46° ENE 18:50:22 10° N
Cosmos 1666 Rocket 3.5 18:41:42 10° S 18:45:57 58° E 18:48:43 21° NNE
CZ-4C R/B 4.0 18:41:11 10° NNW 18:46:09 22° NNE 18:48:11 19° NE
Resurs 1-3 4.2 18:49:09 36° NE 18:49:09 36° NE 18:52:36 10° N
Cosmos 2151 4.4 18:47:29 10° SW 18:51:26 38° WNW 18:55:23 10° N
FENGYUN 3A 3.7 18:46:58 10° SSE 18:52:11 56° ENE 18:57:27 10° N
CENTAUR R/B 3.8 18:49:16 10° W 18:55:08 35° NNW 19:00:37 14° NNE
METEOR-M 4.3 18:51:47 10° S 18:57:08 76° WSW 19:02:31 10° NNW
USA 229 DEB 4.1 18:51:49 10° S 18:58:07 40° ESE 18:59:44 35° E
USA 229 4.1 18:51:57 10° S 18:58:13 40° ESE 18:59:47 35° E
Cosmos 1538 Rocket 3.9 18:53:31 10° S 18:58:47 71° ESE 19:01:35 29° NNE
Iridium 4 Rocket 3.5 18:56:09 10° SSE 18:59:35 43° SE 18:59:35 43° SE
Cosmos 44 4.2 18:57:47 10° WSW 19:02:47 46° NW 19:05:41 22° NNE
ALOS 2.1 19:00:10 10° SSE 19:04:49 72° ENE 19:09:29 10° N
ATLAS 5 CENTAUR R/B 3.5 19:00:20 10° NNW 19:04:55 24° NNE 19:04:58 24° NNE
Cosmos 1626 2.2 19:01:22 10° SSW 19:05:07 74° W 19:06:21 40° N
TIMED 4.3 19:03:18 10° NNW 19:07:43 77° ENE 19:08:22 62° SE
Aureole 2 Rocket 4.1 19:06:10 10° SW 19:09:45 37° WNW 19:12:13 19° N
SJ-6B 3.6 19:07:08 10° S 19:11:08 55° W 19:15:13 10° NNW
FengYun 1-2 T 4.1 19:06:21 10° SSE 19:11:54 85° ENE 19:17:27 10° NNW
Cosmos 2242 Rocket 3.5 19:09:52 10° N 19:14:18 89° W 19:18:45 10° S
Cosmos 1455 2.9 19:11:12 10° NNW 19:14:55 54° W 19:18:38 10° S
Cosmos 1703 4.3 19:11:19 10° SSW 19:15:03 44° WNW 19:17:55 16° N
Cosmos 2333 Rocket 3.7 19:12:00 10° WSW 19:17:02 32° NW 19:21:55 11° NNE
Cosmos 2219 Rocket 4.0 19:13:11 10° WSW 19:17:52 26° NW 19:22:34 10° N
Cosmos 1603 4.3 19:15:06 10° S 19:18:57 37° SSE 19:18:57 37° SSE
Cosmos 1943 Rocket 3.8 19:18:42 10° N 19:20:55 19° NNE 19:20:55 19° NNE
Lacrosse 4 Rocket 1.7 19:21:34 10° NW 19:24:59 59° WNW 19:24:59 59° WNW
Nadezhda 4 Rocket 4.3 19:24:54 10° SSW 19:31:07 67° W 19:37:27 10° N
Cosmos 773 Rocket 4.0 19:34:28 10° SSW 19:39:38 79° WNW 19:39:45 79° NW
Sich 1 4.3 19:37:29 10° SW 19:41:40 40° WNW 19:43:52 24° NNW
Cosmos 1461 4.3 19:43:31 10° WSW 19:46:37 36° WNW 19:46:37 36° WNW
H-2A ROCKET BODY 4.4 19:37:30 10° WSW 19:48:51 21° SSW 19:51:58 16° S
Cosmos 1633 Rocket 4.4 19:45:15 10° SW 19:49:21 38° WNW 19:50:30 32° NW
Cosmos 1092 Rocket 4.3 19:45:21 10° SSW 19:51:38 65° WNW 19:57:58 10° N
Cosmos 2237 Rocket 4.2 19:48:58 10° W 19:53:27 24° NW 19:56:56 14° N
Cosmos 2369 Rocket 3.0 19:49:30 10° NNW 19:53:07 40° N 19:53:07 40° N
SL-16 R/B 3.3 19:54:43 10° WSW 20:00:00 40° NW 20:01:50 31° NNW
USA 215 4.4 19:56:22 20° S 20:00:20 38° SW 20:06:22 10° WNW
ATLAS 3B R/B 4.1 19:59:48 10° NNW 20:04:24 26° N 20:04:24 26° N
Lacrosse 5 3.8 20:06:14 10° NW 20:08:31 23° NNW 20:08:31 23° NNW
Resurs 01 Rocket 3.9 20:18:54 19° WSW 20:20:27 22° W 20:23:58 10° NW
CZ-4C R/B 3.9 20:29:41 10° NW 20:33:23 32° NNW 20:33:23 32° NNW
ATLAS 5 CENTAUR R/B 4.3 20:44:39 10° NW 20:46:32 22° NW 20:46:32 22° NW
